Regional Weather Roundup
Issued by NWS San Angelo, TX

Home | Current Version | Previous Version | Graphics & Text | Print | Product List | Glossary Off
Versions: 1 2 3 4 5 6 7 8 9 10 11 12 13 14 15 16 17 18 19 20 21 22 23 24 25 26 27 28 29 30 31 32 33 34 35 36 37 38 39 40 41 42 43 44 45 46 47 48 49 50

394
ASUS44 KSJT 221110
RWRSJT
WEST CENTRAL TEXAS REGIONAL WEATHER ROUNDUP
NATIONAL WEATHER SERVICE SAN ANGELO TX
500 AM CST SUN JAN 22 2017

NOTE: "FAIR" INDICATES FEW OR NO CLOUDS BELOW 12,000 FEET WITH NO
SIGNIFICANT WEATHER AND/OR OBSTRUCTIONS TO VISIBILITY.

TXZ049-054-064>066-071>073-076>078-098-099-113-114-127-128-139-140-
154-155-168>170-221200
...LOCATIONS ACROSS WEST CENTRAL TEXAS...

CITY           SKY/WX    TMP DP  RH WIND       PRES   REMARKS
SAN ANGELO     CLEAR     50  27  40 W29G37    29.67R
ABILENE        CLOUDY    50  38  63 NW28G44   29.53R
DYESS AFB      CLOUDY    51  39  62 N26G39    29.56R
JUNCTION       CLEAR     53  25  33 W17G35    29.67R
SWEETWATER     PTCLDY    49  35  58 W23G31    29.64R
BROWNWOOD      CLOUDY    54  28  37 W21G33    29.52R
COLEMAN        MOSUNNY   52  28  40 W25G37    29.54R
SONORA         CLEAR     52  23  32 W15G33    29.77R
OZONA          FAIR      48  23  37 MISG      29.80R
BRADY          NOT AVBL
$$

TEXAS PANHANDLE/OKLAHOMA PANHANDLE

CITY           SKY/WX    TMP DP  RH WIND       PRES   REMARKS
AMARILLO       CLOUDY    40  38  93 N22G35    29.68R WCI  30
BORGER         CLOUDY    42  39  89 NW13G21   29.70R WCI  35
CANADIAN       CLOUDY    44  42  93 N17       29.63R WCI  36
DALHART        CLEAR     35  32  88 NW13      29.76R WCI  26
DUMAS          SUNNY     36  33  90 NW15      29.72R WCI  26
GUYMON         NOT AVBL
HEREFORD       SUNNY     38  35  88 NW15      29.75R WCI  29
PAMPA          CLOUDY    41  39  94 N20       29.66R WCI  31
PERRYTON       MOCLDY    41  39  93 N18       29.65R WCI  32
$$

SOUTHERN PANHANDLE/SOUTH PLAINS/ROLLING PLAINS

CITY           SKY/WX    TMP DP  RH WIND       PRES   REMARKS
LUBBOCK        MOCLDY    43  33  68 NW28G38   29.69R WCI  33
SNYDER         CLEAR     47  34  60 NW25G36   29.65R WCI  39
CHILDRESS      CLOUDY    47  40  76 N25G38    29.57R WCI  39
SEMINOLE       SUNNY     43  24  46 W18G29    29.79R WCI  35
$$

PERMIAN BASIN

CITY           SKY/WX    TMP DP  RH WIND       PRES   REMARKS
MIDLAND        CLEAR     45  24  43 W24G30    29.77R WCI  36
ODESSA         CLEAR     46  22  38 W23G31    29.79R WCI  38
WINK           CLEAR     45  22  40 W20       29.83R WCI  37
$$

FAR WEST/SOUTHWEST MOUNTAINS/TRANS PECOS

CITY           SKY/WX    TMP DP  RH WIND       PRES   REMARKS
ALPINE         SUNNY     40  20  43 W38G48    29.97S WCI  28
DRYDEN           N/A     50  21  32 W15       29.84R
EL PASO        CLEAR     39  25  57 W15       30.06F WCI  31
FORT STOCKTON  CLEAR     46  23  40 W28G43    29.87R WCI  37
GUADALUPE PASS CLEAR     32  22  66 W37G44    29.92S WCI  16
MARFA          CLEAR     36  23  59 NW24G31   30.02R WCI  24
PECOS          NOT AVBL
$$

DALLAS/FORT WORTH METROPLEX

CITY           SKY/WX    TMP DP  RH WIND       PRES   REMARKS
DFW AIRPORT    PTCLDY    53  33  46 SW10      29.39R
FTW MEACHAM    PTCLDY    52  30  43 SW8       29.41R
DAL-EXECUTIVE  CLEAR     53  32  44 W13       29.40F
GRAND PRAIRIE  CLEAR     53  31  41 SW8       29.43R
ADDISON        NOT AVBL
MESQUITE       SUNNY     52  33  49 SW5       29.42S
LANCASTER      SUNNY     50  33  51 SW5       29.42S
$$

NORTH CENTRAL TEXAS

CITY           SKY/WX    TMP DP  RH WIND       PRES   REMARKS
SHRMAN/DENISON MOSUNNY   45  38  76 SW7       29.38S
GAINESVILLE    CLEAR     46  32  57 W7        29.40S
BRIDGEPORT     SUNNY     51  34  52 W10       29.43R
DENTON         CLEAR     47  33  58 SW7       29.39S
WAXAHACHIE     SUNNY     50  35  56 W10       29.43S
GRANBURY       CLOUDY    57  32  39 W12G20    29.44S
$$

WESTERN NORTH TEXAS

CITY           SKY/WX    TMP DP  RH WIND       PRES   REMARKS
WICHITA FALLS  CLEAR     42  35  76 NW15      29.42R WCI  34
VERNON         MOSUNNY   45  38  79 NW20G25   29.50R WCI  37
BRECKENRIDGE   CLOUDY    53  39  59 NW20G36   29.47R
COMANCHE       CLOUDY    54  31  41 W18G26    29.49R
$$

CENTRAL AND SOUTH CENTRAL TEXAS

CITY           SKY/WX    TMP DP  RH WIND       PRES   REMARKS
AUSTIN/BERGSTM CLEAR     60  27  28 W16G30    29.57F
WACO           CLEAR     54  33  45 W12       29.47S
HILLSBORO      SUNNY     50  36  58 SW8       29.44F
TEMPLE         CLEAR     57  30  35 W23G29    29.49F
KILLEEN-GRAY   PTCLDY    55  27  34 W15G23    29.52F
FORT HOOD      CLEAR     56  28  34 W22G30    29.48S
GEORGETOWN     CLEAR     57  27  30 W21G31    29.54S
LAGO VISTA     FAIR      57  27  31 W17G32    29.57S
SAN MARCOS     CLEAR     57  27  30 W24       29.61S
NEW BRAUNFELS  CLEAR     60  26  27 W22G31    29.62R
RANDOLPH AFB   CLEAR     59  24  26 W21G28    29.63S
SAN ANTONIO    PTCLDY    59  25  27 W24G35    29.65S
STINSON        CLEAR     63  23  21 W24G37    29.64F
PLEASANTON     NOT AVBL
LA GRANGE      CLEAR     60  32  35 W8        29.58S
GIDDINGS       SUNNY     57  30  35 W8        29.58S
$$

EAST TEXAS

CITY           SKY/WX    TMP DP  RH WIND       PRES   REMARKS
PARIS          CLOUDY    55  37  50 W14       29.37F
CLARKSVILLE    NOT AVBL
TYLER          CLOUDY    55  39  54 SW9       29.42F
LONGVIEW       PTCLDY    56  43  61 W15G25    29.40F
PALESTINE      MOSUNNY   54  39  56 SW8       29.48S
NACOGDOCHES    PTCLDY    54  43  66 W6        29.45F
$$

TEXAS HILL COUNTRY AND EDWARDS PLATEAU

CITY           SKY/WX    TMP DP  RH WIND       PRES   REMARKS
LLANO          SUNNY     55  28  35 W17G29    29.60F
HORSESHOE BAY  FAIR      57  27  31 W13G21    29.59S
KERRVILLE      CLEAR     54  23  30 W18G37    29.67R
FREDERICKSBRG  CLEAR     53  23  31 W25G35    29.64S
ROCKSPRINGS    SUNNY     52  27  37 NW24G31   29.73R
HONDO          CLEAR     61  23  23 NW37G48   29.69S
UVALDE         SUNNY     59  25  26 NW29G41   29.74S
DEL RIO        CLEAR     58  22  24 W16G28    29.80R
$$

SOUTHEAST TEXAS

CITY           SKY/WX    TMP DP  RH WIND       PRES   REMARKS
COLLEGE STN    CLEAR     56  35  45 W12       29.54S
CALDWELL       NOT AVBL
CROCKETT       SUNNY     54  37  54 SW10      29.51S
BRENHAM        CLEAR     59  33  37 W10       29.57S
HUNTSVILLE     CLEAR     58  32  37 SW9       29.52F
CONROE         MOCLDY    59  34  39 W10       29.54F
HOUSTON BUSH   PTCLDY    59  38  45 W9        29.56S
HOUSTON HOBBY  CLOUDY    61  37  41 W14       29.57R
PERLAND        CLOUDY    63  37  38 W12       29.59R
WHARTON        SUNNY     57  38  48 W10       29.62F
$$

THE UPPER TEXAS COAST

CITY           SKY/WX    TMP DP  RH WIND       PRES   REMARKS
ORANGE         LGT RAIN  62  44  51 W6        29.53F
PORT ARTHUR    CLOUDY    61  46  57 W8        29.53F
GALVESTON      MOCLDY    65  43  44 W20G28    29.58R
ANGLETON       PTCLDY    63  36  36 NW8       29.60S
BAY CITY       MOSUNNY   60  40  47 W14G23    29.62R
$$

TEXAS COASTAL BEND, RIO GRANDE PLAINS DEEP SOUTH TEXAS

CITY           SKY/WX    TMP DP  RH WIND       PRES   REMARKS
VICTORIA       CLEAR     58  33  39 W12       29.66R
BEEVILLE       FAIR      62  32  32 NW18G29   29.70S
ROCKPORT       CLEAR     64  36  35 W14G21    29.69R
PORT ARANSAS   SUNNY     63  35  35 NW18G31   29.70R
PORT LAVACA    SUNNY     52  45  76 CALM      29.66S
CORPUS CHRISTI CLEAR     63  32  31 NW23      29.71R
KINGSVILLE NAS NOT AVBL
COTULLA        CLEAR     64  22  20 NW16G28   29.74R
LAREDO         CLEAR     57  40  52 W10       29.78R
BROWNSVILLE    CLEAR     65  39  38 N10       29.73R
PORT ISABEL    CLEAR     64  39  39 N16       29.71R
HEBBRONVILLE   SUNNY     56  37  47 W8        29.76R
MCALLEN        CLEAR     64  40  41 NW10      29.75R
WESLACO        CLEAR     61  40  46 N10       29.73R
FALFURRIAS     SUNNY     61  32  32 NW8       29.73R
EDINBURG       SUNNY     61  38  43 NW8       29.75R
$$




USA.gov is the U.S. government's official web portal to all federal, state and local government web resources and services.